Regional Weather Roundup
Issued by NWS

Home | Current Version | Previous Version | Graphics & Text | Print | Product List | Glossary On
Versions: 1 2 3 4 5 6 7 8 9 10 11 12 13 14 15 16 17 18 19 20 21 22 23 24 25 26 27 28 29 30 31 32 33 34 35 36 37 38 39 40 41 42 43 44 45 46 47 48 49
000
ASUS45 KCYS 010510
RWRWY

WYOMING REGIONAL WEATHER ROUNDUP
NATIONAL WEATHER SERVICE CHEYENNE WY
1100 PM MDT TUE JUN 30 2015

NOTE:  "FAIR" INDICATES FEW OR NO CLOUDS BELOW 12,000 FEET
WITH NO SIGNIFICANT WEATHER AND/OR OBSTRUCTIONS TO VISIBILITY.

WYZ001-010600-
YELLOWSTONE NATIONAL PARK

CITY           SKY/WX    TMP DP  RH WIND       PRES   REMARKS
LK YELLOWSTONE   N/A     57  48  72 CALM      30.35R
W YELLOWSTONE  NOT AVBL

$$
WYZ002>013-054>058-071-098>099-010600-
NORTHERN WYOMING

CITY           SKY/WX    TMP DP  RH WIND       PRES   REMARKS
JACKSON        NOT AVBL
CODY           NOT AVBL
GREYBULL       NOT AVBL
WORLAND        NOT AVBL
SHERIDAN       NOT AVBL
BUFFALO        NOT AVBL
GILLETTE       NOT AVBL
HULETT         MOCLDY    68  61  77 S7        30.00S
NEWCASTLE      FAIR      68  55  64 N7        30.00S

$$
WYZ014>020-022>026-101>103-010600-
CENTRAL WYOMING

CITY           SKY/WX    TMP DP  RH WIND       PRES   REMARKS
BIG PINEY      NOT AVBL
PINEDALE       FAIR      61  50  67 W7        30.29S
DUBOIS         FAIR      63  43  48 W3        30.27S
LANDER         NOT AVBL
RIVERTON       NOT AVBL
CASPER         NOT AVBL
DOUGLAS        NOT AVBL

$$
WYZ021-027>030-104>119-010600-
SOUTHERN WYOMING

CITY           SKY/WX    TMP DP  RH WIND       PRES   REMARKS
EVANSTON       NOT AVBL
KEMMERER       FAIR      68  48  49 N13       30.30S
FORT BRIDGER   CLEAR     72  45  37 NE3       30.30S
ROCK SPRINGS   NOT AVBL
DIXON          FAIR      65  55  69 E9        30.25S
RAWLINS        NOT AVBL
SARATOGA       MOCLDY    63  54  72 NE5       30.30R
LARAMIE        NOT AVBL
CHEYENNE       NOT AVBL
TORRINGTON     NOT AVBL
PINE BLUFFS    FAIR      63  61  94 W9        30.14F THUNDER

$$


USA.gov is the U.S. government's official web portal to all federal, state and local government web resources and services.